Location: Appletree Creek
(38.7363°N, 122.6833°W)
Time: 09:46:06
(UTC+00:00)

Cosmos 1743 - Pass Details

Date: 18 September 2020
Orbit: 510 x 527 km, 82.6° (Epoch: 22 October)

Event Time Altitude Azimuth Distance (km) Brightness Sun altitude
Rises 13:20:25 0° 357° (N) 2,628 6.4 -7.6°
Reaches altitude 10° 13:22:35 10° 1° (N) 1,737 5.5 -7.2°
Maximum altitude 13:26:20 58° 81° (E) 597 3.4 -6.5°
Drops below altitude 10° 13:30:04 10° 161° (SSE) 1,724 5.5 -5.8°
Sets 13:32:12 0° 166° (SSE) 2,607 6.4 -5.4°
